Skip Page Navigation
NASA JPL Caltech
NASA Logo - Jet Propulsion Laboratory + View the NASA Portal
+ Near-Earth Object (NEO) Program
Search JPL
JPL Home Earth Solar System Stars & Galaxies Technology
JPL Solar System Dynamics
BODIES ORBITS EPHEMERIDES TOOLS PHYSICAL DATA DISCOVERY FAQ SITE MAP
JPL Small-Body Database Browser
Search: [ help ]  
23637 (1997 AM6)
Classification: Main-belt Asteroid          SPK-ID: 2023637
Ephemeris | Orbit Diagram | Orbital Elements | Physical Parameters | Discovery Circumstances ]

[ show orbit diagram ]
Orbital Elements at Epoch 2457000.5 (2014-Dec-09.0) TDB
Reference: JPL 9 (heliocentric ecliptic J2000)
 Element Value Uncertainty (1-sigma)   Units 
e .08338881396919838 6.5835e-08  
a 2.306321866836882 1.546e-08 AU
q 2.114000421730127 1.5181e-07 AU
i 7.85063735893602 5.5748e-06 deg
node 101.3941277569636 5.6726e-05 deg
peri 314.9250261711143 6.956e-05 deg
M 83.54881837091789 3.9819e-05 deg
tp 2456703.595955860654
(2014-Feb-15.09595586)
0.00014148 JED
period 1279.317385622892
3.50
1.2863e-05
3.522e-08
d
yr
n .2814000685410197 2.8294e-09 deg/d
Q 2.498643311943637 1.6749e-08 AU
  Orbit Determination Parameters
   # obs. used (total)      529  
   data-arc span      6628 days (18.15 yr)  
   first obs. used      1997-01-04  
   last obs. used      2015-02-27  
   planetary ephem.      DE431  
   SB-pert. ephem.      SB431-BIG16  
   condition code      0  
   fit RMS      .60576  
   data source      ORB  
   producer      Otto Matic  
   solution date      2015-Mar-09 15:12:38  

Additional Information
 Earth MOID = 1.13428 AU 
 T_jup = 3.571 
[ show covariance matrix ]

Ephemeris | Orbit Diagram | Orbital Elements | Physical Parameters | Discovery Circumstances ]

Physical Parameter Table
Parameter Symbol Value Units Sigma Reference Notes
absolute magnitude H 15.4 mag n/a MPO319379  

23637 (1997 AM6)          Discovered 1997-Jan-04 by Beijing Schmidt CCD Asteroid Program at Xinglong
Reference: 20010408/Numbers.arcLast Updated: 2004-04-19

Alternate Designations
 1997 AM6 = 1998 MS4 = 1999 TY96 
Ephemeris | Orbit Diagram | Orbital Elements | Physical Parameters | Discovery Circumstances ]
ABOUT SSD CREDITS/AWARDS PRIVACY/COPYRIGHT GLOSSARY LINKS
FirstGov 2015-Mar-27 15:40 UT
(server date/time)  
NASA Home Page
Site Manager:   Ryan S. Park
Webmaster  Alan B. Chamberlin